| time (UTC) | temp C | wind direction | speed KPH | gust KPH | rain 1hr cm | rain 24hr cm | rain mn cm | humidity % | barometer mb |
| 20260504195000 | 15 | 229 | 19.3 | 37.0 | 0.00 | 0.00 | 0.00 | 68 | 29.8 |
| 20260504194500 | 15 | 183 | 27.4 | 46.7 | 0.00 | 0.00 | 0.00 | 68 | 29.8 |
| 20260504194000 | 15 | 205 | 17.7 | 40.2 | 0.00 | 0.00 | 0.00 | 67 | 29.8 |
| 20260504193500 | 15 | 207 | 40.2 | 41.8 | 0.00 | 0.00 | 0.00 | 67 | 29.8 |
| 20260504192000 | 15 | 210 | 17.7 | 32.2 | 0.00 | 0.00 | 0.00 | 67 | 29.8 |
| 20260504191500 | 15 | 217 | 20.9 | 37.0 | 0.00 | 0.00 | 0.00 | 67 | 29.8 |
| 20260504191000 | 15 | 205 | 17.7 | 45.1 | 0.00 | 0.00 | 0.00 | 67 | 29.9 |
| 20260504190500 | 15 | 226 | 37.0 | 37.0 | 0.00 | 0.00 | 0.00 | 68 | 29.8 |
| 20260504190000 | 15 | 196 | 25.7 | 35.4 | 0.00 | 0.00 | 0.00 | 68 | 29.8 |
| 20260504185508 | 15 | 221 | 17.7 | 38.6 | 0.00 | 0.00 | 0.00 | 66 | 29.9 |
| 20260504185000 | 15 | 193 | 17.7 | 30.6 | 0.00 | 0.00 | 0.00 | 66 | 29.9 |
| 20260504184000 | 15 | 209 | 32.2 | 37.0 | 0.00 | 0.00 | 0.00 | 66 | 29.9 |
| 20260504183500 | 15 | 209 | 27.4 | 41.8 | 0.00 | 0.00 | 0.00 | 66 | 29.9 |
| 20260504183000 | 14 | 215 | 32.2 | 46.7 | 0.00 | 0.00 | 0.00 | 67 | 29.9 |
| 20260504182500 | 15 | 206 | 25.7 | 35.4 | 0.00 | 0.00 | 0.00 | 67 | 29.9 |
| 20260504182000 | 14 | 203 | 33.8 | 43.5 | 0.00 | 0.00 | 0.00 | 68 | 29.9 |
| 20260504181500 | 14 | 216 | 27.4 | 46.7 | 0.00 | 0.00 | 0.00 | 69 | 29.9 |
| 20260504181000 | 14 | 206 | 27.4 | 43.5 | 0.00 | 0.00 | 0.00 | 68 | 29.9 |
| 20260504180500 | 14 | 211 | 30.6 | 45.1 | 0.00 | 0.00 | 0.00 | 68 | 29.9 |
| 20260504180000 | 14 | 201 | 33.8 | 43.5 | 0.00 | 0.00 | 0.00 | 69 | 29.9 |
| 20260504175500 | 14 | 209 | 35.4 | 46.7 | 0.00 | 0.00 | 0.00 | 69 | 29.9 |
| 20260504175000 | 14 | 216 | 35.4 | 38.6 | 0.00 | 0.00 | 0.00 | 69 | 29.9 |
| 20260504174500 | 14 | 214 | 20.9 | 32.2 | 0.00 | 0.00 | 0.00 | 70 | 29.9 |
| 20260504174000 | 14 | 200 | 29.0 | 45.1 | 0.00 | 0.00 | 0.00 | 70 | 29.9 |
| 20260504173501 | 14 | 217 | 29.0 | 40.2 | 0.00 | 0.00 | 0.00 | 69 | 29.9 |
| 20260504172500 | 14 | 213 | 33.8 | 38.6 | 0.00 | 0.00 | 0.00 | 71 | 29.9 |
| 20260504172000 | 14 | 202 | 20.9 | 33.8 | 0.00 | 0.00 | 0.00 | 70 | 29.9 |
| 20260504171500 | 13 | 210 | 20.9 | 43.5 | 0.00 | 0.00 | 0.00 | 72 | 29.9 |
| 20260504171000 | 14 | 210 | 17.7 | 38.6 | 0.00 | 0.00 | 0.00 | 71 | 29.9 |
| 20260504170500 | 13 | 207 | 19.3 | 30.6 | 0.00 | 0.00 | 0.00 | 73 | 29.9 |
| 20260504151000 | 13 | 246 | 19.3 | 22.5 | 0.00 | 0.00 | 0.00 | 67 | 29.9 |
| 20260504141000 | 13 | 210 | 24.1 | 35.4 | 0.00 | 0.00 | 0.00 | 66 | 29.9 |
| 20260504140500 | 13 | 199 | 27.4 | 35.4 | 0.00 | 0.00 | 0.00 | 65 | 29.9 |
| 20260504130500 | 13 | 227 | 27.4 | 35.4 | 0.00 | 0.00 | 0.00 | 58 | 29.9 |
| 20260504110500 | 11 | 217 | 17.7 | 29.0 | 0.00 | 0.00 | 0.00 | 59 | 29.9 |
| 20260504081500 | 10 | 252 | 9.7 | 14.5 | 0.00 | 0.00 | 0.00 | 60 | 29.9 |
| 20260504080501 | 10 | 257 | 14.5 | 14.5 | 0.00 | 0.00 | 0.00 | 60 | 29.9 |
| 20260504050000 | 10 | 216 | 9.7 | 14.5 | 0.00 | 0.00 | 0.00 | 60 | 29.9 |
| 20260504045500 | 10 | 214 | 8.0 | 14.5 | 0.00 | 0.00 | 0.00 | 59 | 29.9 |
| 20260504045000 | 10 | 239 | 12.9 | 16.1 | 0.00 | 0.00 | 0.00 | 59 | 29.9 |
| 20260504044000 | 11 | 233 | 6.4 | 12.9 | 0.00 | 0.00 | 0.00 | 59 | 29.9 |
| 20260504043500 | 10 | 225 | 17.7 | 20.9 | 0.00 | 0.00 | 0.00 | 59 | 29.9 |
| 20260504042500 | 11 | 231 | 6.4 | 16.1 | 0.00 | 0.00 | 0.00 | 56 | 29.9 |
| 20260504042000 | 11 | 257 | 6.4 | 9.7 | 0.00 | 0.00 | 0.00 | 56 | 29.9 |
| 20260504041500 | 11 | 215 | 9.7 | 12.9 | 0.00 | 0.00 | 0.00 | 55 | 29.9 |
| 20260504040500 | 11 | 234 | 6.4 | 11.3 | 0.00 | 0.00 | 0.00 | 55 | 29.9 |
| 20260504035500 | 11 | 215 | 6.4 | 8.0 | 0.00 | 0.00 | 0.00 | 54 | 29.9 |
| 20260504035000 | 11 | 236 | 6.4 | 9.7 | 0.00 | 0.00 | 0.00 | 53 | 29.9 |
| 20260504034000 | 11 | 260 | 8.0 | 9.7 | 0.00 | 0.00 | 0.00 | 52 | 29.9 |
| 20260504033000 | 11 | 213 | 6.4 | 12.9 | 0.00 | 0.00 | 0.00 | 56 | 29.9 |
| 20260504032500 | 11 | 240 | 9.7 | 14.5 | 0.00 | 0.00 | 0.00 | 56 | 29.9 |
| 20260504032000 | 11 | 208 | 8.0 | 17.7 | 0.00 | 0.00 | 0.00 | 56 | 29.9 |
| 20260504030500 | 11 | 214 | 6.4 | 11.3 | 0.00 | 0.00 | 0.00 | 56 | 29.9 |
| 20260504025500 | 11 | 215 | 4.8 | 9.7 | 0.00 | 0.00 | 0.00 | 54 | 29.9 |
| 20260504025000 | 11 | 238 | 6.4 | 9.7 | 0.00 | 0.00 | 0.00 | 54 | 29.9 |
| 20260504024500 | 11 | 240 | 8.0 | 9.7 | 0.00 | 0.00 | 0.00 | 54 | 29.9 |
| 20260504024000 | 11 | 218 | 4.8 | 8.0 | 0.00 | 0.00 | 0.00 | 53 | 29.9 |
| 20260504023500 | 11 | 218 | 6.4 | 9.7 | 0.00 | 0.00 | 0.00 | 52 | 29.9 |
| 20260504022000 | 11 | 214 | 6.4 | 11.3 | 0.00 | 0.00 | 0.00 | 51 | 29.9 |
| 20260504020000 | 11 | 202 | 4.8 | 6.4 | 0.00 | 0.00 | 0.00 | 45 | 29.9 |
| 20260504015500 | 11 | 232 | 3.2 | 6.4 | 0.00 | 0.00 | 0.00 | 44 | 29.9 |
| 20260504014500 | 11 | 213 | 4.8 | 8.0 | 0.00 | 0.00 | 0.00 | 40 | 29.9 |
| 20260504013500 | 12 | 225 | 3.2 | 6.4 | 0.00 | 0.00 | 0.00 | 34 | 29.9 |
| 20260504013000 | 12 | 211 | 3.2 | 4.8 | 0.00 | 0.00 | 0.00 | 34 | 29.9 |
| 20260504012500 | 12 | 221 | 4.8 | 6.4 | 0.00 | 0.00 | 0.00 | 33 | 29.9 |
| 20260504012000 | 12 | 205 | 4.8 | 6.4 | 0.00 | 0.00 | 0.00 | 34 | 29.9 |
| 20260504011500 | 12 | 209 | 4.8 | 6.4 | 0.00 | 0.00 | 0.00 | 33 | 29.9 |
| 20260504010500 | 12 | 206 | 4.8 | 6.4 | 0.00 | 0.00 | 0.00 | 33 | 29.9 |
| 20260504010000 | 12 | 207 | 3.2 | 3.2 | 0.00 | 0.00 | 0.00 | 34 | 29.9 |
| 20260504005500 | 12 | 207 | 1.6 | 3.2 | 0.00 | 0.00 | 0.00 | 32 | 29.9 |
| 20260504005000 | 12 | 256 | 3.2 | 4.8 | 0.00 | 0.00 | 0.00 | 30 | 29.9 |
| 20260504004500 | 12 | 268 | 1.6 | 4.8 | 0.00 | 0.00 | 0.00 | 30 | 29.9 |
| 20260504004000 | 13 | 298 | 3.2 | 3.2 | 0.00 | 0.00 | 0.00 | 29 | 29.9 |
| 20260504003501 | 13 | 277 | 4.8 | 6.4 | 0.00 | 0.00 | 0.00 | 29 | 29.8 |
| 20260504003000 | 13 | 265 | 4.8 | 6.4 | 0.00 | 0.00 | 0.00 | 29 | 29.8 |
| 20260504002501 | 13 | 279 | 3.2 | 4.8 | 0.00 | 0.00 | 0.00 | 28 | 29.8 |
| 20260504000500 | 13 | 291 | 8.0 | 8.0 | 0.00 | 0.00 | 0.00 | 27 | 29.8 |
| 20260504000000 | 13 | 283 | 4.8 | 8.0 | 0.00 | 0.00 | 0.00 | 27 | 29.8 |
| 20260503235500 | 13 | 294 | 3.2 | 9.7 | 0.00 | 0.00 | 0.00 | 27 | 29.8 |
| 20260503235000 | 13 | 281 | 9.7 | 16.1 | 0.00 | 0.00 | 0.00 | 26 | 29.8 |
| 20260503234500 | 14 | 275 | 9.7 | 11.3 | 0.00 | 0.00 | 0.00 | 26 | 29.8 |
| 20260503234000 | 14 | 241 | 6.4 | 11.3 | 0.00 | 0.00 | 0.00 | 26 | 29.8 |
| 20260503233500 | 14 | 275 | 6.4 | 12.9 | 0.00 | 0.00 | 0.00 | 25 | 29.8 |
| 20260503232500 | 14 | 283 | 12.9 | 20.9 | 0.00 | 0.00 | 0.00 | 24 | 29.8 |
| 20260503232000 | 15 | 278 | 17.7 | 24.1 | 0.00 | 0.00 | 0.00 | 24 | 29.8 |
| 20260503231500 | 15 | 250 | 9.7 | 22.5 | 0.00 | 0.00 | 0.00 | 24 | 29.8 |
| 20260503231000 | 15 | 260 | 19.3 | 27.4 | 0.00 | 0.00 | 0.00 | 24 | 29.8 |
| 20260503225000 | 15 | 297 | 16.1 | 27.4 | 0.00 | 0.00 | 0.00 | 24 | 29.8 |
| 20260503223000 | 15 | 288 | 25.7 | 29.0 | 0.00 | 0.00 | 0.00 | 24 | 29.8 |
| 20260503222001 | 15 | 286 | 24.1 | 38.6 | 0.00 | 0.00 | 0.00 | 24 | 29.8 |
| 20260503221500 | 15 | 307 | 8.0 | 29.0 | 0.00 | 0.00 | 0.00 | 24 | 29.8 |
| 20260503221000 | 15 | 254 | 4.8 | 30.6 | 0.00 | 0.00 | 0.00 | 25 | 29.8 |
| 20260503220500 | 15 | 306 | 12.9 | 24.1 | 0.00 | 0.00 | 0.00 | 25 | 29.8 |
| 20260503220001 | 15 | 359 | 4.8 | 27.4 | 0.00 | 0.00 | 0.00 | 25 | 29.8 |
| 20260503215500 | 15 | 257 | 24.1 | 33.8 | 0.00 | 0.00 | 0.00 | 25 | 29.8 |
| 20260503215000 | 15 | 271 | 14.5 | 35.4 | 0.00 | 0.00 | 0.00 | 25 | 29.8 |
| 20260503214500 | 15 | 278 | 19.3 | 27.4 | 0.00 | 0.00 | 0.00 | 25 | 29.8 |
| 20260503214000 | 15 | 287 | 14.5 | 33.8 | 0.00 | 0.00 | 0.00 | 25 | 29.8 |
| 20260503213500 | 15 | 274 | 24.1 | 27.4 | 0.00 | 0.00 | 0.00 | 25 | 29.8 |
| 20260503213000 | 14 | 286 | 11.3 | 35.4 | 0.00 | 0.00 | 0.00 | 25 | 29.8 |
| 20260503212500 | 14 | 294 | 20.9 | 32.2 | 0.00 | 0.00 | 0.00 | 26 | 29.8 |
| 20260503212000 | 14 | 249 | 32.2 | 43.5 | 0.00 | 0.00 | 0.00 | 25 | 29.8 |
| 20260503211500 | 14 | 292 | 29.0 | 48.3 | 0.00 | 0.00 | 0.00 | 25 | 29.8 |
| 20260503211000 | 14 | 308 | 11.3 | 27.4 | 0.00 | 0.00 | 0.00 | 26 | 29.8 |
| 20260503210500 | 14 | 277 | 27.4 | 35.4 | 0.00 | 0.00 | 0.00 | 26 | 29.8 |
| 20260503210000 | 14 | 286 | 24.1 | 38.6 | 0.00 | 0.00 | 0.00 | 26 | 29.8 |
| 20260503205500 | 14 | 291 | 30.6 | 35.4 | 0.00 | 0.00 | 0.00 | 26 | 29.8 |
| 20260503205000 | 14 | 269 | 14.5 | 33.8 | 0.00 | 0.00 | 0.00 | 27 | 29.8 |
| 20260503204500 | 13 | 309 | 19.3 | 37.0 | 0.00 | 0.00 | 0.00 | 27 | 29.8 |
| 20260503204000 | 14 | 283 | 17.7 | 48.3 | 0.00 | 0.00 | 0.00 | 27 | 29.8 |
| 20260503203500 | 14 | 276 | 32.2 | 45.1 | 0.00 | 0.00 | 0.00 | 28 | 29.8 |
| 20260503203001 | 14 | 344 | 14.5 | 30.6 | 0.00 | 0.00 | 0.00 | 28 | 29.8 |
| 20260503202500 | 14 | 250 | 11.3 | 19.3 | 0.00 | 0.00 | 0.00 | 29 | 29.8 |
| 20260503202000 | 13 | 295 | 19.3 | 32.2 | 0.00 | 0.00 | 0.00 | 29 | 29.8 |
| 20260503201500 | 13 | 269 | 20.9 | 32.2 | 0.00 | 0.00 | 0.00 | 29 | 29.8 |
| 20260503201000 | 13 | 307 | 24.1 | 37.0 | 0.00 | 0.00 | 0.00 | 29 | 29.8 |
| 20260503200500 | 13 | 329 | 14.5 | 41.8 | 0.00 | 0.00 | 0.00 | 29 | 29.8 |
| 20260503200000 | 13 | 266 | 25.7 | 43.5 | 0.00 | 0.00 | 0.00 | 29 | 29.8 |
| 20260503195500 | 13 | 284 | 11.3 | 38.6 | 0.00 | 0.00 | 0.00 | 30 | 29.8 |